• In Netherlands
  • List of Countries
  • For 7 days
  • Water Temperature
  • Satellite Maps
  • Weather Map
  • Weather Widgets
  • user-avatar
    Login

    Hourly Weather Quito

    Today, 24 March, Friday

    Time Temperature Precipitation Wind Pressure Humidity
    00:00 +13°C° 0 mm 0 mps 622 mmHg 98%
    01:00 +13°C° 0 mm 0 mps 622 mmHg 98%
    02:00 +13°C° 0 mm 0 mps 622 mmHg 98%
    03:00 +14°C° 0 mm 1 mps 621 mmHg 98%
    04:00 +14°C° 0 mm 1 mps 621 mmHg 98%
    05:00 +15°C° 0 mm 1 mps 622 mmHg 97%
    06:00 +16°C° 0 mm 1 mps 622 mmHg 96%
    07:00 +16°C° 0 mm 0 mps 623 mmHg 95%
    08:00 +18°C° 0 mm 0 mps 624 mmHg 86%
    09:00 +20°C° 0 mm 0 mps 625 mmHg 78%
    10:00 +23°C° 0 mm 0 mps 626 mmHg 70%
    11:00 +23°C° 0.2 mm 0 mps 625 mmHg 68%
    12:00 +25°C° 0.2 mm 1 mps 624 mmHg 67%
    13:00 +25°C° 0.2 mm 1 mps 624 mmHg 65%
    14:00 +25°C° 0.3 mm 1 mps 623 mmHg 67%
    15:00 +24°C° 0.3 mm 1 mps 623 mmHg 69%
    16:00 +22°C° 0.3 mm 0 mps 622 mmHg 72%
    17:00 +20°C° 1.8 mm 0 mps 622 mmHg 79%
    18:00 +18°C° 1.8 mm 0 mps 622 mmHg 86%
    19:00 +16°C° 1.8 mm 0 mps 621 mmHg 93%
    20:00 +16°C° 0.3 mm 0 mps 622 mmHg 93%
    21:00 +18°C° 0.3 mm 1 mps 622 mmHg 93%
    22:00 +16°C° 0.3 mm 1 mps 623 mmHg 94%
    23:00 +16°C° 0.6 mm 1 mps 622 mmHg 94%

    Tomorrow, 25 March, Saturday

    Time Temperature Precipitation Wind Pressure Humidity
    00:00 +16°C° 0.6 mm 1 mps 622 mmHg 94%
    01:00 +16°C° 0.6 mm 1 mps 622 mmHg 94%
    02:00 +16°C° 0 mm 1 mps 622 mmHg 95%
    03:00 +16°C° 0 mm 1 mps 621 mmHg 95%
    04:00 +16°C° 0 mm 1 mps 621 mmHg 95%
    05:00 +16°C° 0 mm 1 mps 622 mmHg 95%
    06:00 +18°C° 0 mm 1 mps 622 mmHg 94%
    07:00 +18°C° 0 mm 1 mps 623 mmHg 94%
    08:00 +19°C° 0 mm 1 mps 624 mmHg 89%
    09:00 +21°C° 0 mm 1 mps 624 mmHg 84%
    10:00 +22°C° 0 mm 1 mps 625 mmHg 79%
    11:00 +24°C° 0.1 mm 1 mps 625 mmHg 72%
    12:00 +25°C° 0.1 mm 1 mps 625 mmHg 65%
    13:00 +26°C° 0.1 mm 1 mps 624 mmHg 58%
    14:00 +26°C° 0.1 mm 1 mps 624 mmHg 62%
    15:00 +25°C° 0.1 mm 1 mps 623 mmHg 65%
    16:00 +25°C° 0.1 mm 1 mps 623 mmHg 68%
    17:00 +23°C° 0.1 mm 1 mps 622 mmHg 75%
    18:00 +21°C° 0.1 mm 1 mps 622 mmHg 83%
    19:00 +19°C° 0.1 mm 1 mps 622 mmHg 90%
    20:00 +19°C° 0.1 mm 1 mps 622 mmHg 92%
    21:00 +18°C° 0.1 mm 1 mps 623 mmHg 94%
    22:00 +18°C° 0.1 mm 1 mps 623 mmHg 96%
    23:00 +18°C° 0.2 mm 1 mps 623 mmHg 96%

    Day after tomorrow, 26 March, Sunday

    Time Temperature Precipitation Wind Pressure Humidity
    00:00 +16°C° 0.2 mm 1 mps 623 mmHg 97%
    01:00 +16°C° 0.2 mm 1 mps 622 mmHg 97%
    02:00 +16°C° 0 mm 1 mps 622 mmHg 98%
    03:00 +16°C° 0 mm 1 mps 621 mmHg 98%
    04:00 +14°C° 0 mm 0 mps 621 mmHg 98%
    05:00 +16°C° 0 mm 1 mps 622 mmHg 97%
    06:00 +18°C° 0 mm 1 mps 623 mmHg 97%
    07:00 +19°C° 0 mm 1 mps 623 mmHg 96%
    08:00 +20°C° 0 mm 1 mps 624 mmHg 87%
    09:00 +22°C° 0 mm 1 mps 625 mmHg 78%
    10:00 +24°C° 0 mm 2 mps 625 mmHg 69%
    11:00 +25°C° 0.1 mm 2 mps 625 mmHg 63%
    12:00 +26°C° 0.1 mm 2 mps 624 mmHg 58%
    13:00 +27°C° 0.1 mm 2 mps 624 mmHg 52%
    14:00 +26°C° 0.6 mm 2 mps 623 mmHg 59%
    15:00 +26°C° 0.6 mm 2 mps 623 mmHg 67%
    16:00 +25°C° 0.6 mm 2 mps 622 mmHg 74%
    17:00 +23°C° 2 mm 1 mps 622 mmHg 80%
    18:00 +21°C° 2 mm 1 mps 622 mmHg 87%
    19:00 +19°C° 2 mm 1 mps 622 mmHg 93%
    20:00 +19°C° 1.2 mm 1 mps 622 mmHg 94%
    21:00 +16°C° 1.2 mm 0 mps 622 mmHg 94%
    22:00 +16°C° 1.2 mm 0 mps 622 mmHg 94%
    23:00 +16°C° 0.5 mm 0 mps 622 mmHg 94%

    27 March, Monday

    Time Temperature Precipitation Wind Pressure Humidity
    00:00 +18°C° 0.5 mm 1 mps 622 mmHg 95%
    01:00 +18°C° 0.5 mm 1 mps 622 mmHg 95%
    02:00 +18°C° 0.7 mm 1 mps 622 mmHg 95%
    03:00 +18°C° 0.7 mm 1 mps 622 mmHg 96%
    04:00 +18°C° 0.7 mm 1 mps 622 mmHg 96%
    05:00 +18°C° 0.6 mm 1 mps 622 mmHg 96%
    06:00 +18°C° 0.6 mm 1 mps 623 mmHg 95%
    07:00 +18°C° 0.6 mm 1 mps 624 mmHg 95%
    08:00 +19°C° 0.3 mm 1 mps 624 mmHg 91%
    09:00 +20°C° 0.3 mm 1 mps 624 mmHg 87%
    10:00 +21°C° 0.3 mm 1 mps 625 mmHg 82%
    11:00 +21°C° 0.1 mm 2 mps 624 mmHg 75%
    12:00 +24°C° 0.1 mm 2 mps 624 mmHg 67%
    13:00 +25°C° 0.1 mm 2 mps 624 mmHg 59%
    14:00 +25°C° 0.1 mm 2 mps 623 mmHg 62%
    15:00 +24°C° 0.1 mm 2 mps 623 mmHg 64%
    16:00 +24°C° 0.1 mm 2 mps 622 mmHg 66%
    17:00 +23°C° 0.1 mm 2 mps 622 mmHg 74%
    18:00 +20°C° 0.1 mm 2 mps 622 mmHg 81%
    19:00 +19°C° 0.1 mm 1 mps 622 mmHg 89%
    20:00 +19°C° 0.4 mm 1 mps 622 mmHg 89%
    21:00 +18°C° 0.4 mm 1 mps 623 mmHg 90%
    22:00 +18°C° 0.4 mm 1 mps 623 mmHg 90%
    23:00 +16°C° 0 mm 1 mps 622 mmHg 91%

    28 March, Tuesday

    Time Temperature Precipitation Wind Pressure Humidity
    00:00 +16°C° 0 mm 1 mps 622 mmHg 91%
    01:00 +16°C° 0 mm 1 mps 622 mmHg 92%
    02:00 +16°C° 0 mm 1 mps 622 mmHg 92%
    03:00 +15°C° 0 mm 1 mps 622 mmHg 93%
    04:00 +15°C° 0 mm 1 mps 621 mmHg 93%
    05:00 +16°C° 0 mm 1 mps 622 mmHg 92%
    06:00 +16°C° 0 mm 1 mps 623 mmHg 91%
    07:00 +18°C° 0 mm 1 mps 623 mmHg 89%
    08:00 +19°C° 0 mm 2 mps 624 mmHg 78%
    09:00 +21°C° 0 mm 4 mps 625 mmHg 68%
    10:00 +23°C° 0 mm 5 mps 625 mmHg 57%
    11:00 +25°C° 0 mm 4 mps 625 mmHg 55%
    12:00 +26°C° 0 mm 4 mps 624 mmHg 52%
    13:00 +27°C° 0 mm 4 mps 624 mmHg 50%
    14:00 +27°C° 0.1 mm 4 mps 623 mmHg 51%
    15:00 +26°C° 0.1 mm 3 mps 623 mmHg 53%
    16:00 +26°C° 0.1 mm 3 mps 623 mmHg 55%
    17:00 +24°C° 0 mm 3 mps 622 mmHg 63%
    18:00 +20°C° 0 mm 2 mps 622 mmHg 72%
    19:00 +18°C° 0 mm 2 mps 622 mmHg 80%
    20:00 +17°C° 0 mm 2 mps 622 mmHg 81%
    21:00 +17°C° 0 mm 2 mps 622 mmHg 82%
    22:00 +16°C° 0 mm 2 mps 623 mmHg 83%
    23:00 +16°C° 0 mm 2 mps 622 mmHg 85%

    29 March, Wednesday

    Time Temperature Precipitation Wind Pressure Humidity
    00:00 +15°C° 0 mm 1 mps 622 mmHg 87%
    01:00 +15°C° 0 mm 1 mps 621 mmHg 89%
    02:00 +14°C° 0 mm 1 mps 621 mmHg 91%
    03:00 +14°C° 0 mm 1 mps 621 mmHg 92%
    04:00 +13°C° 0 mm 1 mps 621 mmHg 93%
    05:00 +14°C° 0 mm 1 mps 621 mmHg 90%
    06:00 +15°C° 0 mm 1 mps 622 mmHg 87%
    07:00 +16°C° 0 mm 1 mps 623 mmHg 84%
    08:00 +18°C° 0 mm 3 mps 624 mmHg 75%
    09:00 +21°C° 0 mm 4 mps 624 mmHg 67%
    10:00 +23°C° 0 mm 5 mps 625 mmHg 59%
    11:00 +25°C° 0.1 mm 5 mps 624 mmHg 55%
    12:00 +26°C° 0.1 mm 4 mps 624 mmHg 51%
    13:00 +27°C° 0.1 mm 4 mps 623 mmHg 48%
    14:00 +27°C° 0.1 mm 4 mps 623 mmHg 49%
    15:00 +26°C° 0.1 mm 3 mps 623 mmHg 51%
    16:00 +26°C° 0.1 mm 3 mps 622 mmHg 53%
    17:00 +24°C° 0.1 mm 3 mps 622 mmHg 64%
    18:00 +20°C° 0.1 mm 2 mps 621 mmHg 74%
    19:00 +17°C° 0.1 mm 2 mps 621 mmHg 85%
    20:00 +18°C° 0.6 mm 1 mps 621 mmHg 87%
    21:00 +18°C° 0.6 mm 1 mps 622 mmHg 88%
    22:00 +16°C° 0.6 mm 1 mps 622 mmHg 90%
    23:00 +16°C° 0.3 mm 1 mps 622 mmHg 92%
    Show more